This is the latest recevied weather packets stored in our database for station/object WA4OPQ-3. If no packets are shown the sender has not sent any weather packets the latest 10 day(s).
| Time | Temp. | Humidity | Pressure | Rain* | Wind** | Luminosity | Snow |
|---|---|---|---|---|---|---|---|
| 1777035270 | 16.11° C | 93% | 1011.2 hPa | 0 mm | - | 90 W/m² | - |
| 1777034665 | 15.56° C | 94% | 1010.7 hPa | 0 mm | - | 79 W/m² | - |
| 1777034061 | 15° C | 94% | 1011 hPa | 0 mm | - | 73 W/m² | - |
| 1777033456 | 14.44° C | 95% | 1010.7 hPa | 0 mm | - | 56 W/m² | - |
| 1777032850 | 14.44° C | 96% | 1010.9 hPa | 0 mm | - | 49 W/m² | - |
| 1777032245 | 13.89° C | 97% | 1010.6 hPa | 0 mm | - | 44 W/m² | - |
| 1777031641 | 13.89° C | 97% | 1010.5 hPa | 0 mm | - | 38 W/m² | - |
| 1777031036 | 13.33° C | 97% | 1010.3 hPa | 0 mm | - | 27 W/m² | - |
| 1777030430 | 13.33° C | 97% | 1010.3 hPa | 0 mm | - | 20 W/m² | - |
| 1777029826 | 13.33° C | 97% | 1010.4 hPa | 0 mm | - | 12 W/m² | - |
| 1777029221 | 13.33° C | 97% | 1010.1 hPa | 0 mm | - | 4 W/m² | - |
| 1777028617 | 13.33° C | 97% | 1010.3 hPa | 0 mm | - | 0 W/m² | - |
| 1777028010 | 13.33° C | 97% | 1010.1 hPa | 0 mm | - | 0 W/m² | - |
| 1777027407 | 13.33° C | 97% | 1010.2 hPa | 0 mm | - | 0 W/m² | - |
| 1777026801 | 13.33° C | 97% | 1010.4 hPa | 0 mm | - | 0 W/m² | - |
| 1777026196 | 13.33° C | 97% | 1010.5 hPa | 0 mm | - | 0 W/m² | - |
| 1777025591 | 13.33° C | 97% | 1010.3 hPa | 0 mm | - | 0 W/m² | - |
| 1777024986 | 13.33° C | 97% | 1010.3 hPa | 0 mm | - | 0 W/m² | - |
| 1777024380 | 13.33° C | 97% | 1010 hPa | 0 mm | - | 0 W/m² | - |
| 1777023775 | 13.33° C | 97% | 1010.4 hPa | 0 mm | - | 0 W/m² | - |
| 1777023171 | 13.33° C | 97% | 1010.4 hPa | 0 mm | - | 0 W/m² | - |
| 1777022567 | 13.33° C | 97% | 1010.4 hPa | 0 mm | - | 0 W/m² | - |
| 1777021960 | 13.33° C | 97% | 1010.4 hPa | 0 mm | - | 0 W/m² | - |
| 1777021356 | 13.33° C | 97% | 1010.4 hPa | 0 mm | - | 0 W/m² | - |
| 1777020751 | 13.33° C | 97% | 1010.2 hPa | 0 mm | - | 0 W/m² | - |
* Rain latest hour (hover to see other rain measurements)
** Current wind speed in m/s (hover to see current wind gust speed)